User: anonymous   Login
Location: Hale Hill Observatory
(39.3806°N, 86.8431°W)
Time: 00:36:57
(UTC-05:00)
Language:

Cosmos 990 Rocket - Orbit

View from above orbital plane
View from above orbital plane
View from above satellite
View from above satellite

Ground track
Ground track

The orbit data is extracted from the following two-line orbital elements,

1 10677U 78019B   15030.73153512  .00000227  00000-0  80624-4 0  6152
2 10677 074.0381 105.7415 0014917 028.5853 331.6116 14.39790075937490
Epoch (UTC): 30 January 2015 17:33:24
Eccentricity: 0.0014917
inclination: 74.0381°
perigee height: 748 km
apogee height: 770 km
right ascension of ascending node: 105.7415°
argument of perigee: 28.5853°
revolutions per day: 14.39790075
mean anomaly at epoch: 331.6116°
orbit number at epoch: 93749

The dashed part of the orbit path shows where the satellite is in the earth's shadow,  

DLR